Grand Forks, ND

6:43 PM CDT on July 24, 2017 (GMT -0500)
Grand Forks International

Weather History for KGFK - May, 2014

Change the Weather History Date:

Monday, May 5, 2014

  Actual Average Record
Temperature  
Mean Temperature 46 °F 51 °F  
Max Temperature 55 °F 65 °F 93 °F (2016)
Min Temperature 37 °F 37 °F 20 °F (2008)
Degree Days  
Heating Degree Days 19 14  
Month to date heating degree days 106 75  
Since 1 July heating degree days 10280 9153  
Cooling Degree Days 0 0  
Month to date cooling degree days 0 0  
Year to date cooling degree days 0 1  
Moisture  
Dew Point 37 °F    
Average Humidity 73    
Maximum Humidity 92    
Minimum Humidity 54    
Precipitation  
Precipitation 0.01 in 0.07 in 1.18 in (2007)
Month to date precipitation 0.21 0.33  
Year to date precipitation 4.83 3.37  
Snow  
Snow 0.00 in 0.00 in T in (2002)
Month to date snowfall 0.0 0.0  
Since 1 July snowfall 60.3 47.3  
Snow Depth 0.00 in    
Sea Level Pressure  
Sea Level Pressure 30.05 in    
Wind  
Wind Speed 7 mph (ENE)    
Max Wind Speed 12 mph    
Max Gust Speed 15 mph    
Visibility 10 miles    
Events Rain    
T = Trace of Precipitation, MM = Missing Value Source: NWS Daily Summary

Daily Weather History Graph

Daily Weather History Graph

Search for Another Location

Airport or City:

Trip Planner

Search our weather history database for the weather conditions in past years. The results will help you decide how hot, cold, wet, or windy it might be!

Date:

Astronomy

May. 05, 2014 Rise Set
Actual Time 6:04 AM CDT 8:47 PM CDT
Civil Twilight 5:28 AM CDT 9:22 PM CDT
Nautical Twilight 4:44 AM CDT 10:08 PM CDT
Astronomical Twilight 3:51 AM CDT 11:01 PM CDT
Moon 11:26 AM CDT (5/5) 1:31 AM CDT (5/5)
Length of Visible Light 15h 53m
Length of Day
14h 43m
Waxing Crescent, 37% of the Moon is Illuminated
May 5
Waxing Crescent
May 6
First Quarter
May 14
Full
May 21
Last Quarter
May 28
New

Hourly Weather History & Observations

Time (CDT) Temp. Windchill Dew Point Humidity Pressure Visibility Wind Dir Wind Speed Gust Speed Precip Events Conditions
12:03 AM 37.4 °F 32.8 °F 35.6 °F 93% 30.08 in 10.0 mi ENE 5.8 mph - 0.00 in Rain Light Rain
12:27 AM 39.2 °F 35.0 °F 35.6 °F 87% 30.08 in 10.0 mi East 5.8 mph - 0.01 in Rain Light Rain
12:50 AM 37.4 °F 33.8 °F 35.6 °F 93% 30.08 in 10.0 mi ENE 4.6 mph - 0.01 in Rain Light Rain
12:53 AM 37.9 °F 33.5 °F 36.0 °F 93% 30.11 in 10.0 mi ENE 5.8 mph - 0.01 in Rain Light Rain
1:53 AM 37.9 °F 33.5 °F 36.0 °F 93% 30.10 in 10.0 mi East 5.8 mph - 0.02 in Rain Light Rain
2:34 AM 37.4 °F 32.8 °F 35.6 °F 93% 30.07 in 10.0 mi ENE 5.8 mph - 0.00 in Rain Light Rain
2:53 AM 37.9 °F 32.7 °F 36.0 °F 93% 30.09 in 10.0 mi ENE 6.9 mph - 0.00 in Rain Light Rain
3:05 AM 37.4 °F 30.8 °F 35.6 °F 93% 30.05 in 10.0 mi ENE 9.2 mph - 0.00 in   Overcast
3:20 AM 37.4 °F 29.8 °F 35.6 °F 93% 30.05 in 10.0 mi ENE 11.5 mph - 0.00 in   Overcast
3:45 AM 37.4 °F 32.1 °F 35.6 °F 93% 30.05 in 10.0 mi ENE 6.9 mph - 0.00 in   Overcast
3:53 AM 37.9 °F 32.7 °F 36.0 °F 93% 30.08 in 10.0 mi ENE 6.9 mph - 0.00 in   Overcast
4:53 AM 37.9 °F 32.1 °F 35.1 °F 89% 30.09 in 10.0 mi ENE 8.1 mph - N/A   Overcast
5:53 AM 37.0 °F 30.4 °F 35.1 °F 93% 30.09 in 10.0 mi ENE 9.2 mph - N/A   Overcast
6:53 AM 37.0 °F 33.3 °F 35.1 °F 93% 30.10 in 10.0 mi ENE 4.6 mph - N/A   Overcast
7:53 AM 37.9 °F 32.1 °F 35.1 °F 89% 30.10 in 10.0 mi NE 8.1 mph - N/A   Overcast
8:53 AM 39.0 °F 34.0 °F 36.0 °F 89% 30.10 in 10.0 mi ENE 6.9 mph - N/A   Overcast
9:53 AM 39.9 °F 35.1 °F 36.0 °F 86% 30.10 in 10.0 mi NE 6.9 mph - N/A   Overcast
10:53 AM 42.1 °F 37.1 °F 37.0 °F 82% 30.10 in 10.0 mi ENE 8.1 mph - N/A   Overcast
11:53 AM 45.0 °F 40.1 °F 39.0 °F 80% 30.08 in 10.0 mi East 9.2 mph - N/A   Overcast
12:09 PM 46.4 °F 42.4 °F 37.4 °F 71% 30.05 in 10.0 mi East 8.1 mph - N/A   Overcast
12:23 PM 46.4 °F 43.5 °F 39.2 °F 76% 30.04 in 10.0 mi East 5.8 mph - N/A   Overcast
12:53 PM 46.4 °F 42.9 °F 37.4 °F 71% 30.04 in 10.0 mi Variable 6.9 mph - N/A   Overcast
1:53 PM 50.0 °F - 39.0 °F 66% 30.05 in 10.0 mi Variable 4.6 mph - N/A   Mostly Cloudy
2:53 PM 51.1 °F - 36.0 °F 56% 30.03 in 10.0 mi NE 4.6 mph - N/A   Mostly Cloudy
3:53 PM 52.0 °F - 37.0 °F 57% 30.01 in 10.0 mi East 5.8 mph - N/A   Overcast
4:53 PM 52.0 °F - 36.0 °F 54% 29.99 in 10.0 mi North 3.5 mph - N/A   Overcast
5:53 PM 53.1 °F - 37.0 °F 55% 29.99 in 10.0 mi West 3.5 mph - N/A   Overcast
6:53 PM 52.0 °F - 37.0 °F 57% 29.98 in 10.0 mi NNE 6.9 mph - N/A   Mostly Cloudy
7:53 PM 52.0 °F - 37.0 °F 57% 29.97 in 10.0 mi NE 5.8 mph - N/A   Scattered Clouds
8:53 PM 46.0 °F 43.9 °F 39.0 °F 76% 29.98 in 10.0 mi NNE 4.6 mph - N/A   Mostly Cloudy
9:53 PM 46.0 °F 43.9 °F 39.0 °F 76% 29.99 in 10.0 mi NNE 4.6 mph - N/A   Mostly Cloudy
10:53 PM 46.4 °F 43.5 °F 39.2 °F 76% 29.98 in 10.0 mi East 5.8 mph - N/A   Mostly Cloudy
11:53 PM 46.9 °F - 39.9 °F 77% 29.99 in 10.0 mi East 8.1 mph - N/A   Overcast